Location: Mentone
(34.5413°N, 85.5351°W)
Time: 09:35:05
(UTC-06:00)

Vanguard 1 - Visible Passes

Search period start: 16 January 2018 00:00
Search period end: 26 January 2018 00:00
Orbit: 649 x 3834 km, 34.3° (Epoch: 15 January)

Date Brightness Start Highest point End Pass type
(mag) Time Alt. Az. Time Alt. Az. Time Alt. Az.
16 Jan 12.2 02:26:15 64° E 02:26:15 64° E 02:43:10 10° E visible
16 Jan 12.4 04:38:58 36° W 04:48:09 76° SSW 05:11:40 10° ESE visible
17 Jan 13.6 00:33:21 16° E 00:33:21 16° E 00:36:07 10° E visible
17 Jan 12.0 02:46:03 76° E 02:46:03 76° E 03:05:12 10° E visible
17 Jan 12.6 04:58:46 29° W 05:09:40 69° SSW 05:32:58 10° SE visible
18 Jan 13.4 00:53:10 21° E 00:53:10 21° E 00:58:00 10° E visible
18 Jan 11.9 03:05:53 85° S 03:05:53 85° S 03:27:08 10° ESE visible
18 Jan 12.7 05:18:35 22° W 05:31:08 60° SSW 05:53:58 10° SE visible
19 Jan 13.2 01:13:00 27° E 01:13:00 27° E 01:19:57 10° E visible
19 Jan 11.9 03:25:43 76° WSW 03:27:10 81° SSW 03:48:57 10° ESE visible
19 Jan 12.9 05:38:26 16° W 05:52:32 51° SSW 06:14:37 10° SE visible
20 Jan 13.0 01:32:51 34° E 01:32:51 34° E 01:41:55 10° E visible
20 Jan 11.9 03:45:34 63° WSW 03:48:37 74° SSW 04:10:33 10° ESE visible
20 Jan 13.1 05:58:18 11° W 06:13:52 43° SW 06:34:51 10° SSE visible
21 Jan 12.7 01:52:44 41° E 01:52:44 41° E 02:03:53 10° E visible
21 Jan 12.0 04:05:27 51° WSW 04:10:03 66° SSW 04:31:53 10° SE visible
22 Jan 12.5 02:12:39 49° ESE 02:12:39 49° ESE 02:25:48 10° ESE visible
22 Jan 12.2 04:25:22 41° WSW 04:31:27 57° SSW 04:52:54 10° SE visible
23 Jan 12.2 02:32:35 57° SE 02:32:35 57° SE 02:47:35 10° ESE visible
23 Jan 12.4 04:45:18 31° W 04:52:50 48° SSW 05:13:32 10° SE visible
24 Jan 13.7 00:39:50 13° E 00:39:50 13° E 00:41:07 10° E visible
24 Jan 12.1 02:52:33 62° SSE 02:52:33 62° SSE 03:09:09 10° ESE visible
24 Jan 12.7 05:05:17 23° W 05:14:13 39° SSW 05:33:44 10° SSE visible
25 Jan 13.5 00:59:49 17° E 00:59:49 17° E 01:02:58 10° E visible
25 Jan 12.0 03:12:32 60° S 03:12:32 60° S 03:30:28 10° SE visible
25 Jan 12.9 05:25:16 16° W 05:35:36 31° SW 05:53:24 10° SSE visible
